TimeEDT,TemperatureF,Dew PointF,Humidity,Sea Level PressureIn,VisibilityMPH,Wind Direction,Wind SpeedMPH,Gust SpeedMPH,PrecipitationIn,Events,Conditions,WindDirDegrees,DateUTC
12:43 AM,46.4,44.6,93,30.12,8.0,West,3.5,-,N/A,,Clear,280,2012-10-08 04:43:00
12:55 AM,46.2,45.1,96,30.12,7.0,West,3.5,-,N/A,,Clear,280,2012-10-08 04:55:00
1:03 AM,46.4,44.6,93,30.13,7.0,West,3.5,-,N/A,,Clear,280,2012-10-08 05:03:00
1:16 AM,46.4,44.6,93,30.12,9.0,West,3.5,-,N/A,,Clear,270,2012-10-08 05:16:00
1:30 AM,44.6,44.6,100,30.12,9.0,Calm,Calm,-,N/A,,Clear,0,2012-10-08 05:30:00
1:35 AM,44.6,42.8,93,30.12,2.5,Calm,Calm,-,N/A,,Clear,0,2012-10-08 05:35:00
1:37 AM,44.6,42.8,93,30.12,1.8,Calm,Calm,-,N/A,,Clear,0,2012-10-08 05:37:00
1:39 AM,44.6,42.8,93,30.12,1.5,Calm,Calm,-,N/A,,Clear,0,2012-10-08 05:39:00
1:41 AM,44.6,42.8,93,30.13,1.5,Calm,Calm,-,N/A,,Clear,0,2012-10-08 05:41:00
1:44 AM,44.6,42.8,93,30.13,1.8,Calm,Calm,-,N/A,,Clear,0,2012-10-08 05:44:00
1:45 AM,44.6,42.8,93,30.13,2.0,Calm,Calm,-,N/A,,Clear,0,2012-10-08 05:45:00
1:52 AM,44.6,42.8,93,30.13,3.0,West,3.5,-,N/A,,Clear,260,2012-10-08 05:52:00
1:53 AM,44.6,42.8,93,30.13,3.0,West,3.5,-,N/A,,Clear,270,2012-10-08 05:53:00
1:54 AM,44.6,42.8,93,30.13,3.0,West,3.5,-,N/A,,Clear,270,2012-10-08 05:54:00
1:55 AM,44.6,43.5,96,30.13,4.0,West,3.5,-,N/A,,Clear,270,2012-10-08 05:55:00
2:55 AM,45.1,44.1,96,30.14,10.0,West,6.9,-,N/A,,Clear,270,2012-10-08 06:55:00
3:33 AM,44.6,42.8,93,30.14,9.0,West,5.8,-,N/A,,Clear,280,2012-10-08 07:33:00
3:43 AM,44.6,42.8,93,30.15,9.0,West,4.6,-,N/A,,Clear,280,2012-10-08 07:43:00
3:55 AM,44.1,42.8,95,30.14,10.0,WNW,6.9,-,N/A,,Clear,290,2012-10-08 07:55:00
4:33 AM,42.8,41.0,93,30.15,7.0,WNW,4.6,-,N/A,,Clear,300,2012-10-08 08:33:00
4:39 AM,42.8,41.0,93,30.16,8.0,WNW,4.6,-,N/A,,Clear,290,2012-10-08 08:39:00
4:55 AM,42.8,41.5,95,30.16,9.0,WNW,5.8,-,N/A,,Clear,300,2012-10-08 08:55:00
5:01 AM,42.8,41.0,93,30.16,9.0,WNW,4.6,-,N/A,,Clear,300,2012-10-08 09:01:00
5:03 AM,42.8,41.0,93,30.16,9.0,WNW,4.6,-,N/A,,Clear,300,2012-10-08 09:03:00
5:55 AM,42.3,41.0,95,30.18,10.0,West,5.8,-,N/A,,Clear,270,2012-10-08 09:55:00
6:55 AM,41.5,40.1,95,30.20,10.0,WNW,5.8,-,N/A,,Clear,290,2012-10-08 10:55:00
7:55 AM,43.5,41.5,93,30.23,10.0,NW,6.9,-,N/A,,Clear,310,2012-10-08 11:55:00
8:55 AM,45.3,42.1,88,30.25,10.0,NNW,6.9,-,N/A,,Overcast,330,2012-10-08 12:55:00
9:55 AM,47.1,41.7,81,30.27,10.0,Variable,4.6,-,N/A,,Overcast,0,2012-10-08 13:55:00
10:55 AM,49.3,41.9,76,30.26,10.0,North,9.2,-,N/A,,Mostly Cloudy,350,2012-10-08 14:55:00
11:55 AM,50.7,40.3,67,30.27,10.0,East,3.5,-,N/A,,Partly Cloudy,100,2012-10-08 15:55:00
12:55 PM,50.9,39.7,66,30.27,10.0,Calm,Calm,-,N/A,,Partly Cloudy,0,2012-10-08 16:55:00
1:44 PM,51.8,39.2,62,30.27,10.0,North,3.5,-,N/A,Rain,Light Rain,360,2012-10-08 17:44:00
1:55 PM,51.1,41.2,69,30.25,10.0,North,3.5,-,0.00,Rain,Light Rain,360,2012-10-08 17:55:00
1:59 PM,51.8,41.0,67,30.25,10.0,Calm,Calm,-,N/A,,Clear,0,2012-10-08 17:59:00
2:55 PM,51.8,42.3,70,30.24,10.0,NNW,4.6,-,0.00,,Scattered Clouds,340,2012-10-08 18:55:00
3:55 PM,52.2,42.1,69,30.24,10.0,Calm,Calm,-,N/A,,Scattered Clouds,0,2012-10-08 19:55:00
4:55 PM,52.2,41.7,68,30.28,10.0,WNW,4.6,-,N/A,,Overcast,290,2012-10-08 20:55:00
5:55 PM,51.3,42.8,73,30.25,10.0,North,5.8,-,N/A,,Overcast,360,2012-10-08 21:55:00
6:55 PM,50.7,42.6,74,30.22,10.0,NNE,6.9,-,N/A,,Overcast,20,2012-10-08 22:55:00
7:55 PM,50.4,43.2,76,30.24,10.0,NNE,5.8,-,N/A,,Overcast,20,2012-10-08 23:55:00
8:55 PM,50.2,44.1,79,30.24,10.0,Calm,Calm,-,N/A,,Overcast,0,2012-10-09 00:55:00
9:42 PM,50.0,42.8,76,30.22,10.0,NNW,4.6,-,N/A,Rain,Light Rain,340,2012-10-09 01:42:00
9:55 PM,50.0,43.5,78,30.22,10.0,North,6.9,-,0.00,Rain,Light Rain,360,2012-10-09 01:55:00
9:57 PM,50.0,42.8,76,30.22,10.0,North,8.1,-,N/A,,Overcast,360,2012-10-09 01:57:00
10:55 PM,50.0,44.1,80,30.21,10.0,North,8.1,-,0.00,,Overcast,10,2012-10-09 02:55:00
11:55 PM,49.6,44.2,82,30.19,10.0,NNE,5.8,-,N/A,,Overcast,20,2012-10-09 03:55:00